Regional Weather Roundup
Issued by NWS

Home | Current Version | Previous Version | Graphics & Text | Print | Product List | Glossary On
Versions: 1 2 3 4 5 6 7 8 9 10 11 12 13 14 15 16 17 18 19 20 21 22 23 24 25 26 27 28 29 30 31 32 33 34 35 36 37 38 39 40 41 42 43 44 45 46 47 48 49 50
631
ASUS43 KIND 052209
RWRIN

WEATHER ROUNDUP FOR INDIANA
NATIONAL WEATHER SERVICE INDIANAPOLIS IN
500 PM EST MON DEC 05 2016

NOTE: "FAIR" INDICATES FEW OR NO CLOUDS BELOW 12,000 FEET WITH NO
SIGNIFICANT WEATHER AND/OR OBSTRUCTIONS TO VISIBILITY.

* - STATION DOES NOT REPORT WEATHER SUCH AS PRECIPITATION OR FOG.

+ - STATION NOT QUALITY CONTROLLED BY THE NATIONAL WEATHER SERVICE.
    USE DATA WITH CAUTION...ESPECIALLY DEWPOINT AND RELATIVE
    HUMIDITY OBSERVATIONS.

INZ001>003-010>013-019-020-052300-
NORTHWEST INDIANA

CITY           SKY/WX    TMP DP  RH WIND       PRES   REMARKS
GARY /AIRPORT/ CLOUDY    34  34 100 VRB3      30.02S
KNOX *+        CLOUDY    32  19  59 SE6       30.02F WCI  26
LA PORTE +     CLOUDY   N/A N/A N/A SE8       30.03F
MICHIGAN CITY+ CLOUDY    32  32 100 S6        30.03S WCI  26
MONTICELLO +   CLOUDY    37  31  79 E3        30.00F
RENSSELAER +   CLOUDY    34  34 100 E7        30.01F WCI  28
VALPARAISO     CLOUDY    33  30  88 S6        30.02F WCI  28

$$

LMZ046-743>745-052300-
SOUTHERN LAKE MICHIGAN

STATION/POSITION TIME  TEMP    WIND        PRES    WAVE
                       AIR SEA DIR/SP/G            HT
                 (UTC) (F)     (DEG/KT/KT) (MB)    (FT)
BURNS HARBOR     2140   33     160/  9/ 15 1016.9F

$$

INZ004-005-014>016-021>024-052300-
NORTH CENTRAL INDIANA

CITY           SKY/WX    TMP DP  RH WIND       PRES   REMARKS
ELKHART        CLOUDY    32  30  93 S5        30.04F WCI  27
GOSHEN         CLOUDY    34  28  79 SE6       30.04F WCI  29
LOGANSPORT +   CLOUDY    36  32  87 E8        30.02F
PERU/GRISSOM   CLEAR     37  34  90 SE6       30.00F
ROCHESTER +    CLOUDY    36  34  93 SE6       30.03F
SOUTH BEND     CLOUDY    32  29  88 SE10      30.04S WCI  24
WARSAW +       CLOUDY    32  28  86 CALM      30.04S

$$

INZ006>009-017-018-025>027-052300-
NORTHEAST INDIANA

CITY           SKY/WX    TMP DP  RH WIND       PRES   REMARKS
ANGOLA *+      CLOUDY    32  28  86 S5        30.05S WCI  27
AUBURN +       CLOUDY    34  30  86 CALM      30.05F
FORT WAYNE     MOCLDY    34  30  85 E3        30.05F
HUNTINGTON +   CLEAR     34  32  90 E3        30.03F
KENDALLVILLE + CLOUDY    32  30  92 SE3       30.05F

$$

INZ028-029-035-036-043>045-051>053-052300-
WEST CENTRAL INDIANA

CITY           SKY/WX    TMP DP  RH WIND       PRES   REMARKS
CRAWFORDSVL +  CLOUDY    39  35  85 E6        29.98F
GREENCASTLE +  PTCLDY    39  36  87 SE5       29.99F
LAFAYETTE      PTCLDY    38  34  85 E7        29.99F
TERRE HAUTE    PTCLDY    43  33  68 SE7       29.99R

$$

INZ030>032-037>040-046>048-054>057-064-065-052300-
CENTRAL INDIANA

CITY           SKY/WX    TMP DP  RH WIND       PRES   REMARKS
CP ATTERBURY + CLOUDY    41  34  75 E5        30.01F
COLUMBUS       MOCLDY    41  37  87 E5        30.02S
FRANKFORT +    MOCLDY    42  37  82 E6        30.01F
GREENWOOD *+   CLOUDY    41  35  78 E5        30.01F
INDIANAPOLIS   MOCLDY    41  33  73 E10       30.00S
-EAGLE CREEK   PTCLDY    41  32  70 SE7       30.00S
KOKOMO +       PTCLDY    38  34  85 E8        30.02F
MARION +       CLEAR     38  32  79 E7        30.02F HAZE
MT COMFORT *+  PTCLDY    37  34  87 E6        30.01S
SHELBYVILLE    CLOUDY    41  35  79 E3        30.01S
ZIONSVILLE +   CLOUDY    39  33  80 SE7       30.00F

$$

INZ033-034-041-042-049-050-058-059-052300-
EAST CENTRAL INDIANA

CITY           SKY/WX    TMP DP  RH WIND       PRES   REMARKS
MUNCIE         CLEAR     40  33  76 E8        30.01F

$$

INZ060-061-067>069-081>083-085>088-052300-
SOUTHWEST INDIANA

CITY           SKY/WX    TMP DP  RH WIND       PRES   REMARKS
EVANSVILLE     CLOUDY    43  34  70 E6        29.98F
HUNTINGBURG *+ CLOUDY    43  36  75 E8        29.98F
WASHINGTON +   CLOUDY    42  37  82 E7        29.99S

$$

INZ062-063-066-070>080-084-089>092-052300-
SOUTH CENTRAL AND SOUTHEAST INDIANA

CITY           SKY/WX    TMP DP  RH WIND       PRES   REMARKS
BLOOMINGTON    CLOUDY    41  32  70 SE8       29.99S
MADISON *+     PTCLDY    43  34  70 E3        30.03S
NORTH VERNON + MOCLDY    43  37  81 E5        30.02R
SEYMOUR +      MOCLDY    43  34  70 SE3       30.01

$$





USA.gov is the U.S. government's official web portal to all federal, state and local government web resources and services.